Location: Barrio Las Umbrías
(40.4173°N, 4.8685°W)
Time: 13:29:58
(UTC+00:00)

NOSS 3-1 (A) - Pass Details

Date: 17 August 2022
Orbit: 700 x 1511 km, 63.4° (Epoch: 13 September)

Event Time Altitude Azimuth Distance (km) Brightness Sun altitude
Rises 20:58:12 0° 227° (SW) 3,119 6.3 -18.4°
Reaches altitude 10° 21:00:28 10° 232° (SW) 2,248 5.6 -18.7°
Maximum altitude 21:05:27 54° 310° (NW) 984 3.9 -19.5°
Drops below altitude 10° 21:11:19 10° 28° (NNE) 2,640 5.9 -20.3°
Sets 21:14:11 0° 32° (NNE) 3,717 6.6 -20.7°
